Simultaneous Nadir Overpasses (SNOs) Predictions

Prediction of SNOs between TERRA and METOP-C Satellite Orbit:

Table of predicted SNOs for the next 14.0 days since TLE Epoch: 2/24/2024
Index Date (TERRA) Time (TERRA) Lat,Lon (TERRA) SZA (TERRA ) Date (METOP-C) Time (METOP-C) Lat,Lon (METOP-C) SZA (METOP-C ) Distance(km) Time Diff (sec)
1 02/25/2024 12:05:29 -79.53,-163.31 91.02 02/25/2024 12:04:33 -79.52,-163.41 91.04 2.19 56
2 02/25/2024 12:54:43 79.77, 6.03 89.28 02/25/2024 12:55:05 79.77, 6.06 89.29 0.63 22
3 02/28/2024 03:26:04 79.60, 146.99 88.09 02/28/2024 03:25:28 79.61, 147.12 88.10 2.98 36
4 02/28/2024 04:15:23 -79.75, -44.33 91.74 02/28/2024 04:16:06 -79.74, -44.42 91.73 1.71 43
5 03/01/2024 18:46:43 -79.60, 96.76 92.92 03/01/2024 18:46:29 -79.59, 96.64 92.93 2.70 14
6 03/01/2024 19:35:58 79.79, -94.18 87.34 03/01/2024 19:37:02 79.79, -94.22 87.35 0.94 64
7 03/04/2024 09:18:03 -79.42,-122.26 94.14 03/04/2024 09:16:52 -79.42,-122.32 94.15 1.17 71
8 03/04/2024 10:07:17 79.66, 47.01 86.17 03/04/2024 10:07:24 79.66, 47.02 86.17 0.19 7
9 03/07/2024 00:38:38 79.42,-172.43 84.86 03/07/2024 00:37:49 79.41,-172.57 84.83 3.14 49



Historial Predications of SNOs between TERRA and METOP-C
